Terug naar catalogus

STARLINK-35015

ActiefCommunicatieSSO
NORAD 65283·PAYLOAD·🇺🇸 United States

Gelanceerd Aug 22, 2025 vanaf Vandenberg Space Force Base

Loading…

Volgende Passages (komende 24 uur)

TLE

VersSource: CelesTrak SupGP

Epoch: Sep 15, 2026, 03:57 UTC

1 65283C 25184L   26258.16506944 -.00028294  00000+0 -87946-3 0  2583
2 65283  97.2835 306.2665 0000814  91.4814 168.5891 15.33412892    15

Volg STARLINK-35015 in realtime met AllMySat

Download on the App Store